Location: Melizzano
(41.1500°N, 14.5000°E)
Time: 18:50:24
(UTC+00:00)

Cosmos 923 Rocket - Pass Details

Date: 11 May 2021
Orbit: 757 x 786 km, 74.0° (Epoch: 22 June)

Event Time Altitude Azimuth Distance (km) Brightness Sun altitude
Rises 21:02:20 0° 342° (NNW) 3,245 8.5 -24.9°
Reaches altitude 10° 21:04:43 10° 344° (NNW) 2,319 7.5 -25.1°
Maximum altitude 21:10:00 77° 70° (ENE) 799 3.9 -25.6°
Enters shadow 21:10:14 75° 100° (E) 805 3.9 -25.7°
